Station 46099 - OOI Westport Shelf Image indicating link to RSS feed of recent meteorological observations for station 46099


Conditions at 46099 as of
(5:50 pm PDT on 06/03/2023)
0050 GMT on 06/04/2023:
Note: This report is more than two hours old
     

Click on the graph icon in the table below to see a time series plot of the last five days of that observation.

5-day plot - Wind Direction Wind Direction (WDIR):NNW ( 330 deg true )
5-day plot - Wind Speed Wind Speed (WSPD): 13.6 kts
5-day plot - Atmospheric Pressure Atmospheric Pressure (PRES):30.17 in
5-day plot - Air Temperature Air Temperature (ATMP): 54.9 °F
5-day plot - Water Temperature Water Temperature (WTMP): 54.1 °F
5-day plot - Salinity Salinity (SAL): 32.02 psu
5-day plot - Wind Speed at 10 Meters Wind Speed at 10 meters (WSPD10M): 15.5 kts
5-day plot - Wind Speed at 20 Meters Wind Speed at 20 meters (WSPD20M): 15.5 kts
5-day plot -  Wind Speed, Wind Gust and Atmospheric Pressure Combined plot of Wind Speed, Gust, and Air Pressure
Previous observations
TIME
(PDT)
5-day plot - Wind Direction
WDIR
 
5-day plot - Wind Speed
WSPD
kts
5-day plot - Wind Gust
GST
kts
5-day plot - Wave Height
WVHT
ft
5-day plot - Dominant Wave Period
DPD
sec
5-day plot - Average Wave Period
APD
sec
5-day plot - Mean Wave Direction
MWD
 
5-day plot - Atmospheric Pressure
PRES
in
5-day plot - Pressure Tendency
PTDY
in
5-day plot - Air Temperature
ATMP
°F
5-day plot - Water Temperature
WTMP
°F
5-day plot - Dew Point
DEWP
°F
5-day plot - Salinity
SAL
psu
5-day plot - Visibility
VIS
nmi
5-day plot - Tide (above MLLW)
TIDE
ft
2023-06-03 05:40 pmNNW 13.6-----30.17- 54.9 54.1- 32.01--
2023-06-03 05:30 pmNNW 13.6-----30.18- 54.9 54.3- 32.01--
2023-06-03 05:20 pm NW 13.6- 5.2-- W30.18- 54.9 54.3- 32.01--
2023-06-03 05:10 pm NW 11.7- 5.2 10--30.18- 54.9 54.1- 32.01--
2023-06-03 05:00 pm NW 11.7-----30.18+0.01 54.9 54.1- 32.01--
2023-06-03 04:50 pm NW 13.6-----30.17- 54.7 54.1- 32.02--
2023-06-03 04:40 pm NW 11.7-----30.18- 54.7 54.1- 32.03--
2023-06-03 04:30 pmNNW 13.6-----30.18- 54.7 54.0- 32.05--
2023-06-03 04:20 pm NW 13.6- 4.6-- W30.18- 54.7 54.0- 32.07--
2023-06-03 04:10 pmNNW 13.6- 4.6 11--30.17- 54.7 54.0- 32.08--
2023-06-03 04:00 pmNNW 11.7-----30.18+0.01 54.7 54.0- 32.08--
2023-06-03 03:50 pmNNW 11.7-----30.18- 54.5 54.0- 32.09--
2023-06-03 03:40 pmNNW 11.7-----30.18- 54.5 54.0- 32.10--
2023-06-03 03:30 pmNNW 11.7-----30.18- 54.3 54.0- 32.11--
2023-06-03 03:20 pmNNW 11.7- 4.9-- W30.17- 54.3 54.0- 32.12--
2023-06-03 03:10 pmNNW 11.7- 4.9 9--30.17- 54.3 54.1- 32.11--
2023-06-03 03:00 pmNNW 11.7-----30.17+0.01 54.3 54.0- 32.12--
2023-06-03 02:50 pmNNW 11.7-----30.17- 54.1 54.0- 32.13--
2023-06-03 02:40 pmNNW 13.6-----30.17- 54.1 54.1- 32.13--
2023-06-03 02:30 pmNNW 13.6-----30.17- 54.1 54.1- 32.14--
2023-06-03 02:20 pmNNW 13.6- 5.6-- W30.17- 54.0 54.1- 32.15--
2023-06-03 02:10 pmNNW 13.6- 5.6 10--30.17- 53.8 54.1- 32.16--
2023-06-03 02:00 pmNNW 13.6-----30.17+0.00 53.6 54.3- 32.16--
2023-06-03 01:50 pm NW 13.6-----30.17- 53.8 54.3- 32.16--
2023-06-03 01:40 pmNNW 13.6-----30.16- 53.8 54.1- 32.17--
2023-06-03 01:30 pmNNW 13.6-----30.16- 53.8 54.3- 32.16--
2023-06-03 01:20 pmNNW 15.5- 5.2-- W30.16- 53.8 54.3- 32.17--
2023-06-03 01:10 pm NW 15.5- 5.2 10--30.17- 53.6 54.5- 32.18--
2023-06-03 01:00 pm NW 15.5-----30.17+0.00 53.6 54.7- 32.18--
2023-06-03 12:50 pm NW 15.5-----30.16- 53.6 54.7- 32.17--
2023-06-03 12:40 pm NW 15.5-----30.16- 54.0 54.9- 32.18--
2023-06-03 12:30 pm NW 15.5-----30.16- 54.1 55.0- 32.18--
2023-06-03 12:20 pm NW 13.6- 4.6-- W30.16- 54.1 55.0- 32.18--
2023-06-03 12:10 pm NW 13.6- 4.6 10--30.16- 54.3 55.0- 32.15--
2023-06-03 12:00 pm NW 13.6-----30.16-0.01 54.5 55.2- 32.16--
2023-06-03 11:50 am NW 11.7-----30.16- 54.7 55.2- 32.16--
2023-06-03 11:40 am W 7.8-----30.16- 55.0 55.2- 32.16--
2023-06-03 11:30 amWSW 7.8-----30.16- 54.9 55.0- 32.14--
2023-06-03 11:20 amWSW 7.8- 4.3-- W30.16- 55.0 54.9- 32.16--
2023-06-03 11:10 amWSW 7.8- 4.3 10--30.16- 55.2 54.9- 32.13--
2023-06-03 11:00 am SW 5.8-----30.16+0.00 55.0 54.9- 32.17--
2023-06-03 10:50 amWSW 5.8-----30.16- 55.0 54.5- 32.16--
2023-06-03 10:40 am SW 5.8-----30.16- 55.0 54.5- 32.12--
2023-06-03 10:30 am SW 5.8-----30.16- 55.0 54.5- 32.13--
2023-06-03 10:20 am SW 5.8- 3.9-- W30.16- 55.0 54.3- 32.16--
2023-06-03 10:10 amSSW 3.9- 3.9 11--30.17- 54.9 54.3- 32.14--
2023-06-03 10:00 am S 3.9-----30.17+0.00 54.7 54.5- 32.16--
2023-06-03 09:50 am S 3.9-----30.18- 54.5 54.3- 32.17--
2023-06-03 09:40 am S 5.8-----30.18- 54.5 54.5- 32.17--
2023-06-03 09:30 am S 5.8-----30.17- 54.5 54.7- 32.17--
2023-06-03 09:20 am S 5.8- 3.6-- W30.17- 54.5 54.7- 32.17--
2023-06-03 09:10 am S 5.8- 3.6 8--30.17- 54.5 54.7- 32.17--
2023-06-03 09:00 am S 5.8-----30.17+0.02 54.3 54.5- 32.17--
2023-06-03 08:50 am S 5.8-----30.17- 54.3 54.5- 32.17--
2023-06-03 08:40 amSSE 3.9-----30.17- 54.3 54.5- 32.17--
2023-06-03 08:30 am S 3.9-----30.17- 54.1 54.5- 32.18--
2023-06-03 08:20 am S 3.9- 3.6-- W30.17- 54.0 54.5- 32.18--
2023-06-03 08:10 amSSE 3.9- 3.6 10--30.17- 54.1 54.5- 32.19--
2023-06-03 08:00 amSSE 3.9-----30.17+0.02 54.1 54.5- 32.21--
2023-06-03 07:50 amSSE 3.9-----30.17- 54.3 54.5- 32.22--
2023-06-03 07:40 amSSE 3.9-----30.17- 54.3 54.5- 32.24--
2023-06-03 07:30 amSSE 3.9-----30.17- 54.7 54.3- 32.25--
2023-06-03 07:20 amSSE 3.9- 3.6-- W30.17- 54.9 54.3- 32.25--
2023-06-03 07:10 amSSE 3.9- 3.6 9--30.17- 54.9 54.3- 32.24--
2023-06-03 07:00 amSSE 3.9-----30.17+0.02 54.7 54.1- 32.24--
2023-06-03 06:50 amSSE 3.9-----30.16- 54.3 54.3- 32.24--
2023-06-03 06:40 amSSE 5.8-----30.16- 54.0 54.1- 32.25--
2023-06-03 06:30 amSSE 5.8-----30.16- 53.8 54.1- 32.24--
2023-06-03 06:20 amSSE 5.8- 3.0-- W30.15- 53.6 54.1- 32.24--
2023-06-03 06:10 amSSE 5.8- 3.0 9--30.15- 53.4 54.0- 32.24--
2023-06-03 06:00 amSSE 5.8-----30.15+0.00 53.2 54.0- 32.23--
2023-06-03 05:50 am SE 5.8-----30.15- 53.2 54.0- 32.25--
2023-06-03 05:40 am SE 5.8-----30.15- 53.1 54.0- 32.25--
2023-06-03 05:30 amESE 3.9-----30.15- 53.2 54.0- 32.25--
2023-06-03 05:20 amESE 3.9- 3.3-- W30.15- 53.2 54.0- 32.25--
2023-06-03 05:10 amESE 3.9- 3.3 10--30.14- 53.4 54.0- 32.23--
2023-06-03 05:00 amESE 3.9-----30.14+0.00 53.4 54.0- 32.23--
2023-06-03 04:50 amESE 3.9-----30.14- 53.4 54.0- 32.25--
2023-06-03 04:40 amESE 3.9-----30.14- 53.2 54.0- 32.26--
2023-06-03 04:30 amESE 1.9-----30.15- 53.2 54.0- 32.25--
2023-06-03 04:20 am SE 1.9- 3.6-- W30.15- 53.2 54.0- 32.23--
2023-06-03 04:10 amSSE 1.9- 3.6 10--30.15- 53.2 54.1- 32.27--
2023-06-03 04:00 am S 1.9-----30.15+0.01 53.2 54.1- 32.26--
2023-06-03 03:50 am S 1.9-----30.15- 53.2 54.3- 32.26--
2023-06-03 03:40 am S 1.9-----30.14- 53.4 54.5- 32.28--
2023-06-03 03:30 am S 1.9-----30.15- 53.4 54.5- 32.28--
2023-06-03 03:20 am S 1.9- 3.3-- W30.14- 53.4 54.5- 32.28--
2023-06-03 03:10 am S 1.9- 3.3 9--30.14- 53.4 54.5- 32.28--
2023-06-03 03:00 am S 1.9-----30.14+0.01 53.4 54.5- 32.28--
2023-06-03 02:50 am S 1.9-----30.14- 53.4 54.5- 32.28--
2023-06-03 02:40 am S 1.9-----30.15- 53.4 54.5- 32.28--
2023-06-03 02:30 amSSW 1.9-----30.14- 53.4 54.5- 32.28--
2023-06-03 02:20 amSSW 1.9- 3.9-- W30.15- 53.4 54.5- 32.28--
2023-06-03 02:10 amSSW 1.9- 3.9 10--30.15- 53.4 54.5- 32.29--
2023-06-03 02:00 amSSW 1.9-----30.14+0.00 53.4 54.3- 32.28--
2023-06-03 01:50 am SW 1.9-----30.14- 53.4 54.3- 32.28--
2023-06-03 01:40 am SW 1.9-----30.14- 53.6 54.1- 32.28--
2023-06-03 01:30 am SW 1.9-----30.14- 53.6 54.1- 32.22--
2023-06-03 01:20 amWSW 1.9- 3.9-- W30.14- 53.6 54.3- 32.13--
2023-06-03 01:10 amWSW 1.9- 3.9 9--30.14- 53.6 54.5- 32.07--
2023-06-03 01:00 amWSW 1.9-----30.14+0.00 53.6 54.5- 32.05--
2023-06-03 12:50 amWSW 1.9-----30.14- 53.4 54.7- 32.02--
2023-06-03 12:40 amWSW 1.9-----30.14- 53.6 54.7- 32.00--
2023-06-03 12:30 amWSW 1.9-----30.14- 53.4 54.7- 31.98--
2023-06-03 12:20 amWSW 1.9- 3.6-- W30.13- 53.2 54.7- 31.96--
2023-06-03 12:10 am- 0.0- 3.6 10--30.14- 53.2 54.7- 31.95--
2023-06-03 12:00 am- 0.0-----30.14-0.01 53.4 54.9- 31.96--
2023-06-02 11:50 pm- 0.0-----30.14- 53.2 54.9- 31.95--
2023-06-02 11:40 pmWSW 1.9-----30.14- 53.6 54.9- 31.95--
2023-06-02 11:30 pm- 0.0-----30.14- 53.6 54.9- 31.93--
2023-06-02 11:20 pm W 1.9- 3.3-- W30.14- 53.6 54.9- 31.90--
2023-06-02 11:10 pm W 1.9- 3.3 8--30.14- 53.8 54.9- 31.88--
2023-06-02 11:00 pmWNW 1.9-----30.14+0.00 53.8 54.9- 31.85--
2023-06-02 10:50 pm NW 1.9-----30.14- 54.0 54.9- 31.85--
2023-06-02 10:40 pmNNW 1.9-----30.14- 54.0 54.9- 31.83--
2023-06-02 10:30 pmNNW 1.9-----30.14- 53.8 55.0- 31.83--
2023-06-02 10:20 pmNNW 1.9- 3.6-- W30.15- 54.0 54.7- 31.82--
2023-06-02 10:10 pm N 1.9- 3.6 9--30.14- 54.1 54.7- 31.79--
2023-06-02 10:00 pmNNW 1.9-----30.14+0.00 54.1 54.7- 31.78--
2023-06-02 09:50 pmNNW 1.9-----30.15- 54.1 54.7- 31.77--
2023-06-02 09:40 pmNNW 1.9-----30.15- 54.1 54.7- 31.77--
2023-06-02 09:30 pmNNW 1.9-----30.15- 54.3 54.7- 31.76--
2023-06-02 09:20 pmNNW 3.9- 3.3-- W30.14- 54.3 54.7- 31.76--
2023-06-02 09:10 pmNNW 3.9- 3.3 9--30.14- 54.3 54.7- 31.75--
2023-06-02 09:00 pmNNW 3.9-----30.14+0.00 54.5 54.9- 31.75--
2023-06-02 08:50 pm NW 3.9-----30.14- 54.9 54.9- 31.74--
2023-06-02 08:40 pm NW 3.9-----30.15- 55.0 54.9- 31.74--
2023-06-02 08:30 pm NW 5.8-----30.14- 55.2 54.9- 31.74--
2023-06-02 08:20 pm NW 5.8- 3.0-- W30.15- 55.4 54.9- 31.74--
2023-06-02 08:10 pm NW 5.8- 3.0 10--30.15- 55.6 55.0- 31.74--
2023-06-02 08:00 pm NW 5.8-----30.15+0.00 55.6 54.9- 31.73--
2023-06-02 07:50 pm NW 3.9-----30.15- 55.9 55.0- 31.72--

Detailed Wave Summary
for 46099 as of
(5:10 pm PDT on 06/03/2023)
0010 GMT on 06/04/2023:
Note: This report is more than two hours old

These wave data are displayed in rounded times.

     

Click on the graph icon in the table below to see a time series plot of the last five days of that observation.

5-day plot - Significant Wave Height Significant Wave Height (WVHT): 5.2 ft
Previous observations
TIME
(PDT)
5-day plot - Wave Height
WVHT
ft
5-day plot - Swell Height
SwH
ft
5-day plot - Swell Period
SwP
sec
5-day plot - Swell Direction
SwD
 
5-day plot - Wind Wave Height
WWH
ft
5-day plot - Wind Wave Period
WWP
sec
5-day plot - Wind Wave Direction
WWD
 
5-day plot - Wave Steepness
STEEPNESS
 
5-day plot - Average Wave Period
APD
sec
2023-06-03 04:10 pm 4.6------ N/A-
2023-06-03 03:10 pm 4.9------ AVERAGE-
2023-06-03 02:10 pm 5.6------ N/A-
2023-06-03 01:10 pm 5.2------ N/A-
2023-06-03 12:10 pm 4.6------ N/A-
2023-06-03 11:10 am 4.3------ N/A-
2023-06-03 10:10 am 3.9------ N/A-
2023-06-03 09:10 am 3.6------ AVERAGE-
2023-06-03 08:10 am 3.6------ N/A-
2023-06-03 07:10 am 3.6------ N/A-
2023-06-03 06:10 am 3.0------ N/A-
2023-06-03 05:10 am 3.3------ N/A-
2023-06-03 04:10 am 3.6------ N/A-
2023-06-03 03:10 am 3.3------ N/A-
2023-06-03 02:10 am 3.9------ N/A-
2023-06-03 01:10 am 3.9------ N/A-
2023-06-03 12:10 am 3.6------ N/A-
2023-06-02 11:10 pm 3.3------ AVERAGE-
2023-06-02 10:10 pm 3.6------ N/A-
2023-06-02 09:10 pm 3.3------ N/A-
2023-06-02 08:10 pm 3.0------ N/A-

Ocean Conditions at 46099 as of
(5:50 pm PDT on 06/03/2023)
0050 GMT on 06/04/2023:
Note: This report is more than two hours old

These oceanographic data are displayed in rounded times.

     

Click on the graph icon in the table below to see a time series plot of the last five days of that observation.

Depth (DEPTH): 3.6 ft
5-day plot - Ocean Temperature Ocean Temperature (OTMP):54.16 °F
5-day plot - Salinity Salinity (SAL):32.02 psu
Previous observations
TIME
(PDT)
DEPTH
ft
5-day plot - Ocean Temperature
OTMP
°F
5-day plot - Conductivity
COND
mS/cm
5-day plot - Salinity
SAL
psu
5-day plot - Oxygen Concentration
O2%
%
5-day plot - Oxygen Concentration
O2PPM
ppm
5-day plot - Chlorophyll
CLCON
ug/l
5-day plot - Turbidity
TURB
FTU
5-day plot - pH
PH
 
5-day plot - Eh
EH
mv
2023-06-03 05:40 pm 3.654.18-32.01------
2023-06-03 05:30 pm 3.654.25-32.01------
2023-06-03 05:20 pm 3.654.30-32.01------
2023-06-03 05:10 pm 3.654.19-32.01------
2023-06-03 05:00 pm 3.654.19-32.01------
2023-06-03 04:50 pm 3.654.16-32.02------
2023-06-03 04:40 pm 3.654.12-32.03------
2023-06-03 04:30 pm 3.653.98-32.05------
2023-06-03 04:20 pm 3.653.98-32.07------
2023-06-03 04:10 pm 3.653.96-32.08------
2023-06-03 04:00 pm 3.653.87-32.08------
2023-06-03 03:50 pm 3.653.92-32.09------
2023-06-03 03:40 pm 3.653.96-32.10------
2023-06-03 03:30 pm 3.653.91-32.11------
2023-06-03 03:20 pm 3.654.00-32.12------
2023-06-03 03:10 pm 3.654.09-32.11------
2023-06-03 03:00 pm 3.653.89-32.12------
2023-06-03 02:50 pm 3.653.94-32.13------
2023-06-03 02:40 pm 3.654.12-32.13------
2023-06-03 02:30 pm 3.654.10-32.14------
2023-06-03 02:20 pm 3.654.12-32.15------
2023-06-03 02:10 pm 3.654.14-32.16------
2023-06-03 02:00 pm 3.654.25-32.16------
2023-06-03 01:50 pm 3.654.23-32.16------
2023-06-03 01:40 pm 3.654.19-32.17------
2023-06-03 01:30 pm 3.654.27-32.16------
2023-06-03 01:20 pm 3.654.36-32.17------
2023-06-03 01:10 pm 3.654.54-32.18------
2023-06-03 01:00 pm 3.654.63-32.18------
2023-06-03 12:50 pm 3.654.73-32.17------
2023-06-03 12:40 pm 3.654.86-32.18------
2023-06-03 12:30 pm 3.655.04-32.18------
2023-06-03 12:20 pm 3.655.04-32.18------
2023-06-03 12:10 pm 3.655.11-32.15------
2023-06-03 12:00 pm 3.655.29-32.16------
2023-06-03 11:50 am 3.655.24-32.16------
2023-06-03 11:40 am 3.655.15-32.16------
2023-06-03 11:30 am 3.655.00-32.14------
2023-06-03 11:20 am 3.654.91-32.16------
2023-06-03 11:10 am 3.654.84-32.13------
2023-06-03 11:00 am 3.654.86-32.17------
2023-06-03 10:50 am 3.654.48-32.16------
2023-06-03 10:40 am 3.654.45-32.12------
2023-06-03 10:30 am 3.654.41-32.13------
2023-06-03 10:20 am 3.654.32-32.16------
2023-06-03 10:10 am 3.654.27-32.14------
2023-06-03 10:00 am 3.654.45-32.16------
2023-06-03 09:50 am 3.654.39-32.17------
2023-06-03 09:40 am 3.654.50-32.17------
2023-06-03 09:30 am 3.654.64-32.17------
2023-06-03 09:20 am 3.654.66-32.17------
2023-06-03 09:10 am 3.654.61-32.17------
2023-06-03 09:00 am 3.654.54-32.17------
2023-06-03 08:50 am 3.654.54-32.17------
2023-06-03 08:40 am 3.654.48-32.17------
2023-06-03 08:30 am 3.654.45-32.18------
2023-06-03 08:20 am 3.654.41-32.18------
2023-06-03 08:10 am 3.654.45-32.19------
2023-06-03 08:00 am 3.654.45-32.21------
2023-06-03 07:50 am 3.654.43-32.22------
2023-06-03 07:40 am 3.654.41-32.24------
2023-06-03 07:30 am 3.654.41-32.25------
2023-06-03 07:20 am 3.654.36-32.25------
2023-06-03 07:10 am 3.654.27-32.24------
2023-06-03 07:00 am 3.654.23-32.24------
2023-06-03 06:50 am 3.654.27-32.24------
2023-06-03 06:40 am 3.654.21-32.25------
2023-06-03 06:30 am 3.654.14-32.24------
2023-06-03 06:20 am 3.654.09-32.24------
2023-06-03 06:10 am 3.653.96-32.24------
2023-06-03 06:00 am 3.654.00-32.23------
2023-06-03 05:50 am 3.654.05-32.25------
2023-06-03 05:40 am 3.654.00-32.25------
2023-06-03 05:30 am 3.653.89-32.25------
2023-06-03 05:20 am 3.653.96-32.25------
2023-06-03 05:10 am 3.653.91-32.23------
2023-06-03 05:00 am 3.653.92-32.23------
2023-06-03 04:50 am 3.654.03-32.25------
2023-06-03 04:40 am 3.654.00-32.26------
2023-06-03 04:30 am 3.653.92-32.25------
2023-06-03 04:20 am 3.653.94-32.23------
2023-06-03 04:10 am 3.654.18-32.27------
2023-06-03 04:00 am 3.654.14-32.26------
2023-06-03 03:50 am 3.654.25-32.26------
2023-06-03 03:40 am 3.654.41-32.28------
2023-06-03 03:30 am 3.654.45-32.28------
2023-06-03 03:20 am 3.654.48-32.28------
2023-06-03 03:10 am 3.654.50-32.28------
2023-06-03 03:00 am 3.654.50-32.28------
2023-06-03 02:50 am 3.654.54-32.28------
2023-06-03 02:40 am 3.654.54-32.28------
2023-06-03 02:30 am 3.654.55-32.28------
2023-06-03 02:20 am 3.654.59-32.28------
2023-06-03 02:10 am 3.654.52-32.29------
2023-06-03 02:00 am 3.654.37-32.28------
2023-06-03 01:50 am 3.654.27-32.28------
2023-06-03 01:40 am 3.654.21-32.28------
2023-06-03 01:30 am 3.654.23-32.22------
2023-06-03 01:20 am 3.654.28-32.13------
2023-06-03 01:10 am 3.654.41-32.07------
2023-06-03 01:00 am 3.654.54-32.05------
2023-06-03 12:50 am 3.654.59-32.02------
2023-06-03 12:40 am 3.654.63-32.00------
2023-06-03 12:30 am 3.654.61-31.98------
2023-06-03 12:20 am 3.654.64-31.96------
2023-06-03 12:10 am 3.654.70-31.95------
2023-06-03 12:00 am 3.654.77-31.96------
2023-06-02 11:50 pm 3.654.79-31.95------
2023-06-02 11:40 pm 3.654.84-31.95------
2023-06-02 11:30 pm 3.654.84-31.93------
2023-06-02 11:20 pm 3.654.79-31.90------
2023-06-02 11:10 pm 3.654.81-31.88------
2023-06-02 11:00 pm 3.654.82-31.85------
2023-06-02 10:50 pm 3.654.90-31.85------
2023-06-02 10:40 pm 3.654.95-31.83------
2023-06-02 10:30 pm 3.655.00-31.83------
2023-06-02 10:20 pm 3.654.77-31.82------
2023-06-02 10:10 pm 3.654.63-31.79------
2023-06-02 10:00 pm 3.654.72-31.78------
2023-06-02 09:50 pm 3.654.66-31.77------
2023-06-02 09:40 pm 3.654.63-31.77------
2023-06-02 09:30 pm 3.654.68-31.76------
2023-06-02 09:20 pm 3.654.72-31.76------
2023-06-02 09:10 pm 3.654.77-31.75------
2023-06-02 09:00 pm 3.654.79-31.75------
2023-06-02 08:50 pm 3.654.79-31.74------
2023-06-02 08:40 pm 3.654.88-31.74------
2023-06-02 08:30 pm 3.654.90-31.74------
2023-06-02 08:20 pm 3.654.95-31.74------
2023-06-02 08:10 pm 3.655.02-31.74------
2023-06-02 08:00 pm 3.654.95-31.73------
2023-06-02 07:50 pm 3.654.97-31.72------

Solar Radiation Conditions at 46099 as of
(5:50 pm PDT on 06/03/2023)
0050 GMT on 06/04/2023:
Note: This report is more than two hours old
     

Click on the graph icon in the table below to see a time series plot of the last five days of that observation.

5-day plot - Short Wave Radiation 1 Short Wave Radiation 1 (SRAD1): 506.9watts/meter2
5-day plot - Long Wave Radiation Long Wave Radiation (LWRAD): 288.5watts/meter2
Previous observations
TIME
(PDT)
5-day plot - Short Wave Radiation 1
SRAD1
w/m2
5-day plot - Short Wave Radiation 2
SRAD2
w/m2
5-day plot - Long Wave Radiation
LRAD
w/m2
2023-06-03 05:40 pm 552.5- 291.2
2023-06-03 05:30 pm 604.0- 297.6
2023-06-03 05:20 pm 581.0- 301.5
2023-06-03 05:10 pm 586.5- 306.7
2023-06-03 05:00 pm 603.8- 311.3
2023-06-03 04:50 pm 508.0- 311.8
2023-06-03 04:40 pm 526.3- 308.1
2023-06-03 04:30 pm 412.8- 301.0
2023-06-03 04:20 pm 550.9- 299.7
2023-06-03 04:10 pm 718.1- 298.6
2023-06-03 04:00 pm 831.9- 299.7
2023-06-03 03:50 pm 859.1- 301.6
2023-06-03 03:40 pm 895.0- 302.9
2023-06-03 03:30 pm 797.3- 301.4
2023-06-03 03:20 pm 846.5- 300.9
2023-06-03 03:10 pm 898.1- 301.2
2023-06-03 03:00 pm 921.9- 302.0
2023-06-03 02:50 pm 932.9- 301.9
2023-06-03 02:40 pm 945.4- 302.1
2023-06-03 02:30 pm 936.0- 303.3
2023-06-03 02:20 pm 951.4- 309.6
2023-06-03 02:10 pm 971.8- 313.8
2023-06-03 02:00 pm 899.3- 323.1
2023-06-03 01:50 pm 989.6- 320.7
2023-06-03 01:40 pm1025.8- 315.0
2023-06-03 01:30 pm 952.0- 351.3
2023-06-03 01:20 pm 517.4- 367.5
2023-06-03 01:10 pm 533.7- 368.1
2023-06-03 01:00 pm 489.5- 367.8
2023-06-03 12:50 pm 602.6- 367.4
2023-06-03 12:40 pm 482.9- 367.1
2023-06-03 12:30 pm 885.4- 352.0
2023-06-03 12:20 pm 713.2- 364.9
2023-06-03 12:10 pm 433.8- 366.9
2023-06-03 12:00 pm 537.1- 366.1
2023-06-03 11:50 am 366.5- 367.6
2023-06-03 11:40 am 710.5- 359.7
2023-06-03 11:30 am 751.7- 344.9
2023-06-03 11:20 am 895.0- 322.5
2023-06-03 11:10 am 919.7- 317.3
2023-06-03 11:00 am 697.0- 330.4
2023-06-03 10:50 am 737.4- 321.4
2023-06-03 10:40 am 815.3- 310.8
2023-06-03 10:30 am 805.2- 309.4
2023-06-03 10:20 am 811.0- 315.0
2023-06-03 10:10 am 494.7- 326.3
2023-06-03 10:00 am 393.7- 348.2
2023-06-03 09:50 am 338.2- 359.2
2023-06-03 09:40 am 342.6- 359.4
2023-06-03 09:30 am 341.3- 358.4
2023-06-03 09:20 am 412.6- 359.0
2023-06-03 09:10 am 497.2- 344.4
2023-06-03 09:00 am 544.3- 317.6
2023-06-03 08:50 am 519.0- 310.1
2023-06-03 08:40 am 361.8- 317.0
2023-06-03 08:30 am 453.6- 332.6
2023-06-03 08:20 am 264.9- 352.5
2023-06-03 08:10 am 209.1- 362.8
2023-06-03 08:00 am 234.2- 359.7
2023-06-03 07:50 am 299.9- 351.8
2023-06-03 07:40 am 463.1- 330.9
2023-06-03 07:30 am 351.4- 305.4
2023-06-03 07:20 am 269.8- 304.5
2023-06-03 07:10 am 234.2- 306.7
2023-06-03 07:00 am 208.7- 312.0
2023-06-03 06:50 am 181.8- 322.7
2023-06-03 06:40 am 143.3- 331.6
2023-06-03 06:30 am 137.6- 338.0
2023-06-03 06:20 am 125.1- 342.1
2023-06-03 06:10 am 110.1- 344.2
2023-06-03 06:00 am 91.4- 345.4
2023-06-03 05:50 am 65.4- 346.5
2023-06-03 05:40 am 42.9- 346.8
2023-06-03 05:30 am 28.7- 346.4
2023-06-03 05:20 am 23.4- 346.8
2023-06-03 05:10 am 21.4- 353.2
2023-06-03 05:00 am 21.3- 364.2
2023-06-03 04:50 am 21.2- 363.8
2023-06-03 04:40 am 20.5- 353.1
2023-06-03 04:30 am 20.1- 346.1
2023-06-03 04:20 am 20.1- 345.9
2023-06-03 04:10 am 20.0- 344.5
2023-06-03 04:00 am 20.0- 344.3
2023-06-03 03:50 am 20.0- 344.2
2023-06-03 03:40 am 20.0- 343.8
2023-06-03 03:30 am 20.0- 343.1
2023-06-03 03:20 am 19.8- 342.1
2023-06-03 03:10 am 19.8- 341.2
2023-06-03 03:00 am 19.8- 339.7
2023-06-03 02:50 am 19.6- 338.3
2023-06-03 02:40 am 19.6- 336.3
2023-06-03 02:30 am 19.6- 334.9
2023-06-03 02:20 am 19.6- 332.9
2023-06-03 02:10 am 19.5- 329.9
2023-06-03 02:00 am 19.4- 325.8
2023-06-03 01:50 am 19.3- 323.8
2023-06-03 01:40 am 19.5- 320.8
2023-06-03 01:30 am 19.4- 315.5
2023-06-03 01:20 am 19.4- 311.9
2023-06-03 01:10 am 19.3- 309.6
2023-06-03 01:00 am 19.0- 307.4
2023-06-03 12:50 am 18.9- 307.7
2023-06-03 12:40 am 19.1- 309.3
2023-06-03 12:30 am 19.0- 308.9
2023-06-03 12:20 am 18.7- 312.7
2023-06-03 12:10 am 18.8- 313.0
2023-06-03 12:00 am 18.7- 309.7
2023-06-02 11:50 pm 18.7- 307.8
2023-06-02 11:40 pm 18.8- 306.6
2023-06-02 11:30 pm 18.8- 303.7
2023-06-02 11:20 pm 18.8- 300.8
2023-06-02 11:10 pm 18.8- 299.1
2023-06-02 11:00 pm 18.7- 297.1
2023-06-02 10:50 pm 18.6- 295.9
2023-06-02 10:40 pm 18.5- 293.8
2023-06-02 10:30 pm 18.5- 293.6
2023-06-02 10:20 pm 18.4- 294.6
2023-06-02 10:10 pm 18.6- 294.8
2023-06-02 10:00 pm 18.5- 293.3
2023-06-02 09:50 pm 18.3- 293.3
2023-06-02 09:40 pm 18.1- 292.9
2023-06-02 09:30 pm 18.1- 292.2
2023-06-02 09:20 pm 18.7- 290.9
2023-06-02 09:10 pm 20.4- 290.1
2023-06-02 09:00 pm 25.0- 289.6
2023-06-02 08:50 pm 34.0- 289.1
2023-06-02 08:40 pm 48.4- 288.9
2023-06-02 08:30 pm 63.9- 288.6
2023-06-02 08:20 pm 83.3- 288.4
2023-06-02 08:10 pm 100.1- 288.3
2023-06-02 08:00 pm 122.5- 287.5
2023-06-02 07:50 pm 145.8- 287.1